Regional Weather Roundup
Issued by NWS Sioux Falls, SD

Home | Current Version | Previous Version | Graphics & Text | Print | Product List | Glossary On
Versions: 1 2 3 4 5 6 7 8 9 10 11 12 13 14 15 16 17 18 19 20 21 22 23 24 25 26 27 28 29 30 31 32 33 34 35 36 37 38 39 40 41 42 43 44 45 46 47 48 49 50
000
ASUS43 KFSD 212210
RWRFSD

WEATHER ROUNDUP FOR SE SOUTH DAKOTA/SW MINNESOTA/NW IOWA
NATIONAL WEATHER SERVICE SIOUX FALLS SD
400 PM CST SUN DEC 21 2014

NOTE: "FAIR" INDICATES FEW OR NO CLOUDS BELOW 12,000 FEET WITH NO
SIGNIFICANT WEATHER AND OR OBSTRUCTIONS TO VISIBILITY.


SDZ038>040-050-052>070-212300-
SOUTHEAST SOUTH DAKOTA

CITY           SKY/WX    TMP DP  RH WIND       PRES   REMARKS
CHAMBERLAIN    CLEAR     34  30  83 SE7       29.43F WCI  28
HURON          CLEAR     36  32  85 SE12      29.49F
MADISON        LGT RAIN  32  32 100 S16G24    29.54S WCI  21
MITCHELL       CLEAR     37  33  85 S17       29.51F
SIOUX FALLS    CLOUDY    38  35  89 S22       29.58F
WINNER         FAIR      43  30  60 S20       29.41F
YANKTON        CLOUDY    37  34  87 S20G25    29.59F
$$

MNZ071-072-080-081-089-090-097-098-212300-
SOUTHWEST MINNESOTA

CITY           SKY/WX    TMP DP  RH WIND       PRES   REMARKS
FAIRMONT       CLOUDY    37  34  87 S17       29.70R
JACKSON        CLOUDY    37  36  93 S18       29.68F FOG
LUVERNE        CLOUDY    37  37 100 S13       29.61F FOG
MARSHALL       CLOUDY    36  32  87 S14G21    29.61F
MONTEVIDEO     CLOUDY    36  36 100 S13G18    29.63S
PIPESTONE      DRZL/FOG  36  36 100 S15       29.58F VSB 1/2
REDWOOD FALLS  FOG       36  35  96 SE12      29.66S VSB 1
TRACY          CLOUDY    38  37  96 S12G17    29.61F FOG
WINDOM         CLOUDY    37  37 100 S13G18    29.65F FOG
WORTHINGTON    CLOUDY    37 -11  12 S16G22    29.64F
$$

IAZ001>003-012>014-020>022-031-032-NEZ013-014-SDZ071-212300-
NORTHWEST IOWA

CITY           SKY/WX    TMP DP  RH WIND       PRES   REMARKS
CHEROKEE       CLOUDY    39  39  99 S15G21    29.70R FOG
DENISON        CLOUDY    39  39 100 S18G30    29.71S FOG
ESTHERVILLE    CLOUDY    37  36  96 S20G29    29.69S FOG
LE MARS        CLOUDY    41  39  93 S20       29.65F FOG
ORANGE CITY    CLOUDY    39  37  93 S20       29.64F FOG
SHELDON        CLOUDY    39  39 100 S22G32    29.63F FOG
SIOUX CITY     CLOUDY    42  38  85 S18       29.68F
SPENCER        CLOUDY    39  36  89 S15       29.69F FOG
STORM LAKE     FOG       37  37 100 S17       29.71R VSB 1
$$

ABBREVIATIONS USED IN REMARKS
   TC - TEMPERATURE IN CELSIUS
  WCI - WIND CHILL INDEX
   HX - HEAT INDEX
  VSB - VISIBILITY



USA.gov is the U.S. government's official web portal to all federal, state and local government web resources and services.